THY5AZ LTFM-LSZH

Flight info

Callsign THY5AZ
Flight time N/A
Altitude 34000
Route VADEN1D/35L VADEN DCT BAKLO DCT XANEX DCT BESLI DCT UTEKA DCT BEDOX DCT ERKIR DCT KPT L856 NEGRA
Aircraft B738/M-SDE2E3FGHIRWXY/LB1

Departure

Time 2026-05-04 21:19
Airport İstanbul Airport (LTFM)

Arrival

Time N/A
Airport Zürich Airport (LSZH)
Time Latitude Longitude Altitude Speed Heading
2026-05-04 20:50 41.26667 28.74124 312 ft 0 kts 89°
2026-05-04 21:07 41.26667 28.74109 312 ft 4 kts 89°
2026-05-04 21:07 41.26666 28.74077 312 ft 4 kts 89°
2026-05-04 21:07 41.26666 28.74052 312 ft 4 kts 79°
2026-05-04 21:08 41.26657 28.74027 311 ft 4 kts 33°
2026-05-04 21:08 41.26638 28.74018 311 ft 3 kts 360°
2026-05-04 21:08 41.26614 28.74018 312 ft 4 kts 359°
2026-05-04 21:08 41.26600 28.74018 312 ft 1 kts 359°
2026-05-04 21:12 41.26605 28.74018 312 ft 2 kts 359°
2026-05-04 21:13 41.26635 28.74017 311 ft 5 kts 359°
2026-05-04 21:13 41.26672 28.74017 310 ft 6 kts
2026-05-04 21:13 41.26749 28.74014 312 ft 13 kts 356°
2026-05-04 21:13 41.26838 28.74011 312 ft 13 kts
2026-05-04 21:14 41.26923 28.74013 311 ft 12 kts
2026-05-04 21:14 41.27007 28.74013 310 ft 12 kts 353°
2026-05-04 21:14 41.27055 28.73939 309 ft 12 kts 269°
2026-05-04 21:14 41.27051 28.73833 309 ft 12 kts 269°
2026-05-04 21:15 41.27048 28.73717 309 ft 13 kts 268°
2026-05-04 21:15 41.27046 28.73595 309 ft 13 kts 269°
2026-05-04 21:15 41.27044 28.73476 309 ft 13 kts 269°
2026-05-04 21:15 41.27043 28.73361 309 ft 12 kts 269°
2026-05-04 21:16 41.27042 28.73248 309 ft 12 kts 269°
2026-05-04 21:16 41.27041 28.73135 305 ft 13 kts 270°
2026-05-04 21:16 41.27039 28.73018 305 ft 13 kts 258°
2026-05-04 21:16 41.26964 28.72985 307 ft 12 kts 178°
2026-05-04 21:17 41.26879 28.72988 308 ft 12 kts 179°
2026-05-04 21:17 41.26796 28.72990 309 ft 12 kts 180°
2026-05-04 21:17 41.26721 28.72968 309 ft 12 kts 238°
2026-05-04 21:17 41.26718 28.72859 308 ft 16 kts 271°
2026-05-04 21:18 41.26722 28.72706 309 ft 14 kts 270°
2026-05-04 21:18 41.26717 28.72562 309 ft 11 kts 276°
2026-05-04 21:18 41.26770 28.72513 307 ft 11 kts 359°
2026-05-04 21:18 41.27039 28.72507 300 ft 75 kts 359°
2026-05-04 21:19 41.27800 28.72493 279 ft 141 kts 359°
2026-05-04 21:19 41.28953 28.72453 413 ft 179 kts 358°
2026-05-04 21:19 41.30110 28.72417 933 ft 152 kts 358°
2026-05-04 21:19 41.31150 28.72424 672 ft 148 kts 359°
2026-05-04 21:20 41.32173 28.72427 335 ft 150 kts 358°
2026-05-04 21:20 41.33393 28.72404 694 ft 188 kts 357°
2026-05-04 21:20 41.34716 28.72398 1759 ft 191 kts 360°
2026-05-04 21:20 41.36069 28.72278 2399 ft 203 kts 348°
2026-05-04 21:21 41.37307 28.71303 2775 ft 222 kts 315°
2026-05-04 21:21 41.38061 28.69441 3318 ft 237 kts 290°
2026-05-04 21:21 41.38216 28.67218 3955 ft 245 kts 275°
2026-05-04 21:21 41.38177 28.64931 4548 ft 249 kts 275°
2026-05-04 21:22 41.38136 28.62597 5130 ft 253 kts 276°
2026-05-04 21:22 41.38099 28.60254 5754 ft 255 kts 276°
2026-05-04 21:22 41.37869 28.57839 6123 ft 282 kts 254°
2026-05-04 21:22 41.36647 28.55685 6645 ft 305 kts 217°
2026-05-04 21:23 41.34699 28.54666 7369 ft 309 kts 183°
2026-05-04 21:23 41.32558 28.54799 8108 ft 310 kts 171°
2026-05-04 21:23 41.30391 28.55041 8825 ft 315 kts 174°
2026-05-04 21:23 41.28188 28.55182 9613 ft 318 kts 176°
2026-05-04 21:24 41.25979 28.55375 10317 ft 321 kts 165°
2026-05-04 21:24 41.23912 28.56576 10525 ft 332 kts 137°
2026-05-04 21:24 41.22151 28.58671 10728 ft 350 kts 130°
2026-05-04 21:24 41.20387 28.60996 11096 ft 363 kts 130°
2026-05-04 21:25 41.18527 28.63502 10668 ft 400 kts 130°
2026-05-04 21:25 41.16513 28.66249 10693 ft 419 kts 129°
2026-05-04 21:25 41.14574 28.68908 12137 ft 396 kts 129°
2026-05-04 21:25 41.12688 28.71530 12928 ft 397 kts 129°
2026-05-04 21:26 41.10761 28.74141 13855 ft 392 kts 129°
2026-05-04 21:26 41.08814 28.76751 13726 ft 406 kts 129°
2026-05-04 21:26 41.06806 28.79472 12628 ft 419 kts 129°
2026-05-04 21:26 41.04847 28.82313 11808 ft 416 kts 123°
2026-05-04 21:27 41.03224 28.85432 11102 ft 405 kts 116°
2026-05-04 21:27 41.01867 28.88663 10276 ft 399 kts 114°
2026-05-04 21:27 41.00509 28.91834 9691 ft 388 kts 112°
2026-05-04 21:27 40.99421 28.94915 9983 ft 365 kts 112°
2026-05-04 21:28 40.98018 28.97654 10135 ft 356 kts 124°
2026-05-04 21:28 40.96366 29.00049 10597 ft 347 kts 129°
2026-05-04 21:28 40.94661 29.02295 11362 ft 350 kts 130°
2026-05-04 21:28 40.92881 29.04591 11743 ft 363 kts 130°
2026-05-04 21:29 40.91054 29.06936 12312 ft 370 kts 131°
2026-05-04 21:29 40.89205 29.09319 13035 ft 372 kts 131°
2026-05-04 21:29 40.87347 29.11721 13768 ft 375 kts 131°
2026-05-04 21:29 40.85511 29.14124 14376 ft 377 kts 127°
2026-05-04 21:30 40.84101 29.16977 14933 ft 369 kts 105°
2026-05-04 21:30 40.83397 29.20195 15615 ft 364 kts 97°
2026-05-04 21:30 40.82800 29.23464 16192 ft 368 kts 97°
2026-05-04 21:30 40.82180 29.26751 16772 ft 373 kts 99°
2026-05-04 21:31 40.80859 29.33475 17894 ft 382 kts 99°
2026-05-04 21:31 40.80359 29.36901 18453 ft 377 kts 84°
2026-05-04 21:31 40.80858 29.40206 18953 ft 364 kts 60°
2026-05-04 21:32 40.82219 29.42904 19521 ft 356 kts 44°
2026-05-04 21:32 40.84140 29.45010 20068 ft 354 kts 30°
2026-05-04 21:32 40.86355 29.46300 20569 ft 355 kts 15°
2026-05-04 21:32 40.88817 29.46674 21062 ft 360 kts 359°
2026-05-04 21:33 40.91285 29.45976 21553 ft 369 kts 342°
2026-05-04 21:33 40.93527 29.44247 22067 ft 382 kts 326°
2026-05-04 21:33 40.95345 29.41602 22545 ft 395 kts 313°
2026-05-04 21:33 40.96955 29.38635 23019 ft 400 kts 311°
2026-05-04 21:34 40.98529 29.35582 23440 ft 403 kts 311°
2026-05-04 21:34 41.00100 29.32485 23838 ft 407 kts 311°
2026-05-04 21:34 41.01663 29.29409 24235 ft 408 kts 311°
2026-05-04 21:34 41.03257 29.26292 24630 ft 410 kts 311°
2026-05-04 21:35 41.04866 29.23166 24987 ft 411 kts 311°
2026-05-04 21:35 41.06484 29.20039 25363 ft 412 kts 311°
2026-05-04 21:35 41.08113 29.16899 25696 ft 415 kts 311°
2026-05-04 21:35 41.09754 29.13743 26024 ft 417 kts 311°
2026-05-04 21:36 41.10779 29.11770 26229 ft 418 kts 311°